Weather History for KHNR - May, 2013

Change the Weather History Date:

Friday, May 10, 2013

  Actual Average Record
Temperature  
Mean Temperature 57 °F -  
Max Temperature 68 °F 72 °F 98 °F (2011)
Min Temperature 46 °F 46 °F 32 °F (1966)
Degree Days  
Heating Degree Days 8    
Growing Degree Days 7 (Base 50)    
Moisture  
Dew Point 46 °F    
Average Humidity 73    
Maximum Humidity 100    
Minimum Humidity 37    
Precipitation  
Precipitation 0.00 in - - ()
Sea Level Pressure  
Sea Level Pressure 30.07 in    
Wind  
Wind Speed 12 mph (NNW)    
Max Wind Speed 20 mph    
Max Gust Speed 24 mph    
Visibility 10 miles    
Events      
Averages and records for this station are not official NWS values.
T = Trace of Precipitation, MM = Missing Value Source: NWS Daily Summary

Daily Weather History Graph

Daily Weather History Graph

Search for Another Location

Airport or City:

Trip Planner

Search our weather history database for the weather conditions in past years. The results will help you decide how hot, cold, wet, or windy it might be!

Date:

Astronomy

May. 10, 2013 Rise Set
Actual Time 6:06 AM CDT 8:29 PM CDT
Civil Twilight 5:35 AM CDT 9:00 PM CDT
Nautical Twilight 4:57 AM CDT 9:39 PM CDT
Astronomical Twilight 4:14 AM CDT 10:22 PM CDT
Moon 6:31 AM CDT (5/10) 9:19 PM CDT (5/10)
Length of Visible Light 15h 24m
Length of Day
14h 22m
New Moon, 0% of the Moon is Illuminated
May 10
New Moon
May 17
First Quarter
May 24
Full
May 31
Last Quarter
Jun 8
New

Hourly Weather History & Observations

Time (CDT) Temp. Windchill Dew Point Humidity Pressure Visibility Wind Dir Wind Speed Gust Speed Precip Events Conditions
12:15 AM 53.6 °F - 50.0 °F 88% 30.04 in 10.0 mi North 13.8 mph 19.6 mph N/A   Overcast
12:55 AM 51.8 °F - 48.2 °F 88% 30.04 in 10.0 mi North 17.3 mph - N/A   Overcast
1:15 AM 51.8 °F - 48.2 °F 88% 30.04 in 10.0 mi North 12.7 mph 18.4 mph N/A   Overcast
1:35 AM 51.8 °F - 48.2 °F 88% 30.05 in 10.0 mi North 15.0 mph - N/A   Overcast
1:55 AM 51.8 °F - 48.2 °F 88% 30.04 in 10.0 mi North 17.3 mph 23.0 mph N/A   Overcast
2:15 AM 50.0 °F - 48.2 °F 94% 30.04 in 10.0 mi North 19.6 mph 24.2 mph N/A   Overcast
2:35 AM 48.2 °F - 48.2 °F 100% 30.04 in 10.0 mi North 16.1 mph - N/A   Overcast
2:55 AM 48.2 °F - 48.2 °F 100% 30.04 in 10.0 mi North 19.6 mph - N/A   Overcast
3:15 AM 48.2 °F - 46.4 °F 93% 30.05 in 10.0 mi North 16.1 mph 21.9 mph N/A   Overcast
3:35 AM 48.2 °F - 46.4 °F 93% 30.05 in 10.0 mi North 19.6 mph 23.0 mph N/A   Overcast
3:55 AM 48.2 °F - 46.4 °F 93% 30.05 in 10.0 mi North 17.3 mph 21.9 mph N/A   Overcast
4:15 AM 48.2 °F - 46.4 °F 93% 30.06 in 10.0 mi North 16.1 mph 19.6 mph N/A   Overcast
4:35 AM 48.2 °F - 46.4 °F 93% 30.06 in 10.0 mi North 11.5 mph - N/A   Overcast
4:55 AM 48.2 °F - 46.4 °F 93% 30.06 in 10.0 mi North 12.7 mph - N/A   Overcast
5:15 AM 48.2 °F - 46.4 °F 93% 30.07 in 10.0 mi North 11.5 mph - N/A   Overcast
5:35 AM 48.2 °F - 46.4 °F 93% 30.07 in 10.0 mi North 10.4 mph - N/A   Overcast
5:55 AM 48.2 °F - 46.4 °F 93% 30.08 in 10.0 mi North 10.4 mph 17.3 mph N/A   Overcast
6:15 AM 48.2 °F - 46.4 °F 93% 30.08 in 10.0 mi North 13.8 mph 17.3 mph N/A   Overcast
6:35 AM 46.4 °F 40.4 °F 44.6 °F 93% 30.09 in 10.0 mi North 13.8 mph 19.6 mph N/A   Overcast
7:15 AM 46.4 °F 41.5 °F 44.6 °F 93% 30.11 in 10.0 mi North 10.4 mph - N/A   Overcast
7:35 AM 46.4 °F 41.9 °F 44.6 °F 93% 30.11 in 10.0 mi North 9.2 mph - N/A   Overcast
8:15 AM 46.4 °F 41.5 °F 44.6 °F 93% 30.11 in 10.0 mi North 10.4 mph - N/A   Overcast
8:35 AM 46.4 °F 42.4 °F 44.6 °F 93% 30.12 in 10.0 mi North 8.1 mph - N/A   Overcast
8:55 AM 46.4 °F 41.5 °F 44.6 °F 93% 30.12 in 10.0 mi NNW 10.4 mph - N/A   Overcast
9:15 AM 46.4 °F 41.5 °F 44.6 °F 93% 30.12 in 10.0 mi NNE 10.4 mph - N/A   Overcast
9:35 AM 48.2 °F - 44.6 °F 87% 30.11 in 10.0 mi North 10.4 mph - N/A   Mostly Cloudy
9:55 AM 50.0 °F - 46.4 °F 87% 30.11 in 10.0 mi NNW 9.2 mph - N/A   Scattered Clouds
10:15 AM 51.8 °F - 44.6 °F 76% 30.11 in 10.0 mi NNW 11.5 mph - N/A   Clear
10:35 AM 53.6 °F - 46.4 °F 77% 30.12 in 10.0 mi North 11.5 mph 16.1 mph N/A   Clear
10:55 AM 53.6 °F - 48.2 °F 82% 30.11 in 10.0 mi NNW 13.8 mph 17.3 mph N/A   Clear
11:15 AM 55.4 °F - 48.2 °F 77% 30.11 in 10.0 mi NNW 13.8 mph 19.6 mph N/A   Clear
11:35 AM 57.2 °F - 50.0 °F 77% 30.11 in 10.0 mi NNW 16.1 mph 19.6 mph N/A   Clear
12:15 PM 60.8 °F - 51.8 °F 72% 30.11 in 10.0 mi NNW 16.1 mph 20.7 mph N/A   Scattered Clouds
12:35 PM 60.8 °F - 51.8 °F 72% 30.11 in 10.0 mi North 15.0 mph 19.6 mph N/A   Scattered Clouds
12:55 PM 60.8 °F - 51.8 °F 72% 30.11 in 10.0 mi NNW 11.5 mph 17.3 mph N/A   Scattered Clouds
1:15 PM 62.6 °F - 48.2 °F 59% 30.11 in 10.0 mi North 9.2 mph 18.4 mph N/A   Scattered Clouds
1:35 PM 62.6 °F - 48.2 °F 59% 30.11 in 10.0 mi North 10.4 mph - N/A   Scattered Clouds
1:55 PM 64.4 °F - 48.2 °F 56% 30.11 in 10.0 mi North 8.1 mph 16.1 mph N/A   Scattered Clouds
2:15 PM 64.4 °F - 44.6 °F 49% 30.10 in 10.0 mi North 9.2 mph - N/A   Mostly Cloudy
2:35 PM 66.2 °F - 46.4 °F 49% 30.10 in 10.0 mi North 11.5 mph - N/A   Mostly Cloudy
2:55 PM 64.4 °F - 44.6 °F 49% 30.09 in 10.0 mi North 8.1 mph - N/A   Mostly Cloudy
3:15 PM 66.2 °F - 46.4 °F 49% 30.08 in 10.0 mi North 10.4 mph 18.4 mph N/A   Mostly Cloudy
3:35 PM 66.2 °F - 42.8 °F 43% 30.08 in 10.0 mi NW 8.1 mph 18.4 mph N/A   Mostly Cloudy
3:55 PM 66.2 °F - 42.8 °F 43% 30.07 in 10.0 mi NNW 12.7 mph 17.3 mph N/A   Scattered Clouds
4:15 PM 66.2 °F - 42.8 °F 43% 30.07 in 10.0 mi NNW 12.7 mph 16.1 mph N/A   Scattered Clouds
4:35 PM 66.2 °F - 41.0 °F 40% 30.06 in 10.0 mi NNW 10.4 mph - N/A   Scattered Clouds
4:55 PM 68.0 °F - 42.8 °F 40% 30.05 in 10.0 mi North 8.1 mph 16.1 mph N/A   Scattered Clouds
5:15 PM 66.2 °F - 41.0 °F 40% 30.05 in 10.0 mi North 6.9 mph 10.4 mph N/A   Scattered Clouds
5:35 PM 66.2 °F - 41.0 °F 40% 30.04 in 10.0 mi NNW 12.7 mph 16.1 mph N/A   Clear
5:55 PM 66.2 °F - 39.2 °F 37% 30.04 in 10.0 mi NNW 8.1 mph - N/A   Clear
6:15 PM 66.2 °F - 39.2 °F 37% 30.04 in 10.0 mi NNW 10.4 mph - N/A   Clear
6:35 PM 66.2 °F - 39.2 °F 37% 30.04 in 10.0 mi North 9.2 mph - N/A   Clear
6:55 PM 66.2 °F - 39.2 °F 37% 30.04 in 10.0 mi NW 8.1 mph - N/A   Clear
7:15 PM 66.2 °F - 41.0 °F 40% 30.04 in 10.0 mi NNW 11.5 mph - N/A   Clear
7:35 PM 64.4 °F - 42.8 °F 45% 30.04 in 10.0 mi NW 8.1 mph - N/A   Clear
7:55 PM 62.6 °F - 44.6 °F 52% 30.04 in 10.0 mi NW 6.9 mph - N/A   Clear
8:15 PM 60.8 °F - 44.6 °F 55% 30.04 in 10.0 mi WNW 6.9 mph - N/A   Clear
8:35 PM 55.4 °F - 46.4 °F 72% 30.05 in 10.0 mi West 6.9 mph - N/A   Clear
8:55 PM 53.6 °F - 46.4 °F 77% 30.05 in 10.0 mi WNW 6.9 mph - N/A   Clear
9:15 PM 51.8 °F - 46.4 °F 82% 30.05 in 10.0 mi WNW 6.9 mph - N/A   Clear
9:35 PM 53.6 °F - 46.4 °F 77% 30.06 in 10.0 mi WNW 6.9 mph - N/A   Clear
9:55 PM 53.6 °F - 46.4 °F 77% 30.07 in 10.0 mi WNW 8.1 mph - N/A   Clear
10:15 PM 53.6 °F - 44.6 °F 72% 30.07 in 10.0 mi NW 6.9 mph - N/A   Clear
10:35 PM 51.8 °F - 44.6 °F 76% 30.08 in 10.0 mi WNW 6.9 mph - N/A   Clear
10:55 PM 51.8 °F - 44.6 °F 76% 30.08 in 10.0 mi Calm Calm - N/A   Clear
11:15 PM 51.8 °F - 44.6 °F 76% 30.07 in 10.0 mi Calm Calm - N/A   Clear
11:35 PM 51.8 °F - 44.6 °F 76% 30.07 in 10.0 mi Calm Calm - N/A   Clear
11:55 PM 48.2 °F - 44.6 °F 87% 30.07 in 10.0 mi Calm Calm - N/A   Clear